User: anonymous   Login
Location: Sherrills_Ford_Terrell
(35.6000°N, 80.9830°W)
Time: 19:14:08
(UTC-05:00)
Language:

CZ-4B R/B - Orbit

View from above orbital plane
View from above orbital plane
View from above satellite
View from above satellite

Ground track
Ground track

The orbit data is extracted from the following two-line orbital elements,

1 29093U 06015B   16336.87967581 +.00003020 +00000-0 +76719-4 0  9994
2 29093 097.4889 077.4384 0065199 307.4322 052.1001 15.38331256587088
Epoch (UTC): 01 December 2016 21:06:43
Eccentricity: 0.0065199
inclination: 97.4889°
perigee height: 406 km
apogee height: 495 km
right ascension of ascending node: 77.4384°
argument of perigee: 307.4322°
revolutions per day: 15.38331256
mean anomaly at epoch: 52.1001°
orbit number at epoch: 58708

The dashed part of the orbit path shows where the satellite is in the earth's shadow,  

DLR